Location: Brede
(50.9167°N, 0.6000°E)
Time: 21:36:18
(UTC+00:00)

A-11 Canister half - Pass Details

Date: 30 November 2020
Orbit: 1524 x 1684 km, 47.3° (Epoch: 23 January)

Event Time Altitude Azimuth Distance (km) Brightness Sun altitude
Rises 04:24:54 0° 203° (SSW) 4,925 11.4 -29.4°
Reaches altitude 10° 04:28:33 10° 193° (SSW) 3,941 11.0 -28.8°
Maximum altitude 04:36:54 31° 137° (SE) 2,651 10.5 -27.5°
Drops below altitude 10° 04:45:10 10° 81° (E) 3,906 12.1 -26.2°
Sets 04:48:44 0° 72° (ENE) 4,875 12.7 -25.6°
